Satellite: NOAA-17
Catalog number: 27453
Epoch time:      12110.86096082
Element set:     675
Inclination:      098.3416 deg
RA of node:       140.8333 deg
Eccentricity:    0.0011282
Arg of perigee:   332.4343 deg
Mean anomaly:     027.6724 deg
Mean motion:   14.24417887 rev/day
Decay rate:       2.10e-06 rev/day^2
Epoch rev:           51045
Checksum:              282

Satellite: NOAA-18
Catalog number: 28654
Epoch time:      12110.87456459
Element set:     150
Inclination:      099.0411 deg
RA of node:       068.4959 deg
Eccentricity:    0.0014074
Arg of perigee:   322.4032 deg
Mean anomaly:     037.6624 deg
Mean motion:   14.11633952 rev/day
Decay rate:       1.18e-06 rev/day^2
Epoch rev:           35633
Checksum:              293

Satellite: NOAA-19
Catalog number: 33591
Epoch time:      12110.86936953
Element set:     342
Inclination:      098.8606 deg
RA of node:       051.3928 deg
Eccentricity:    0.0013812
Arg of perigee:   182.8822 deg
Mean anomaly:     177.2744 deg
Mean motion:   14.11324014 rev/day
Decay rate:       3.46e-06 rev/day^2
Epoch rev:           16478
Checksum:              307

/EX
SB KEPS @ AMSAT  $ORB12110.M
Orbital Elements  12110.MISC

HR AMSAT ORBITAL ELEMENTS FOR MANNED AND MISCELLANEOUS SATELLITES
FROM WA5QGD FORT WORTH,TX April 19, 2012
Send SUBSCRIBE KEPS/UNSUBSCRIBE KEPS to majordomo@amsat.org only
BID: ORB12110.M
TO ALL RADIO AMATEURS BT

Satellite: HUBBLE
Catalog number: 20580
Epoch time:      12110.27074257
Element set:     985
Inclination:      028.4694 deg
RA of node:       169.0681 deg
Eccentricity:    0.0003597
Arg of perigee:   152.7600 deg
Mean anomaly:     207.3227 deg
Mean motion:   15.02383503 rev/day
Decay rate:      1.525e-05 rev/day^2
Epoch rev:             586
Checksum:              278

Satellite: ISS
Catalog number: 25544
Epoch time:      12110.91545190
Element set:     405
Inclination:      051.6451 deg
RA of node:       053.9680 deg
Eccentricity:    0.0008016
Arg of perigee:   296.6509 deg
Mean anomaly:     170.7543 deg
Mean motion:   15.58471699 rev/day
Decay rate:     1.4820e-04 rev/day^2
Epoch rev:           76893
Checksum:              310

Satellite: CO-58
Catalog number: 28895
Epoch time:      12109.62011386
Element set:    0154
Inclination:      097.9242 deg
RA of node:       338.4866 deg
Eccentricity:    0.0016995
Arg of perigee:   342.5695 deg
Mean anomaly:     017.4929 deg
Mean motion:   14.60563486 rev/day
Decay rate:       4.85e-06 rev/day^2
Epoch rev:           34496
Checksum:              358

Satellite: FALCON
Catalog number: 30776
Epoch time:      12110.57115020
Element set:     327
Inclination:      035.4335 deg
RA of node:       274.7551 deg
Eccentricity:    0.0001766
Arg of perigee:   265.1735 deg
Mean anomaly:     094.8810 deg
Mean motion:   15.07102837 rev/day
Decay rate:      3.310e-05 rev/day^2
Epoch rev:           28140
Checksum:              258

Satellite: MAST
Catalog number: 31126
Epoch time:      12109.97695035
Element set:    0441
Inclination:      097.8765 deg
RA of node:       124.5394 deg
Eccentricity:    0.0093040
Arg of perigee:   295.7252 deg
Mean anomaly:     063.4365 deg
Mean motion:   14.54106369 rev/day
Decay rate:       5.39e-06 rev/day^2
Epoch rev:           26566
Checksum:              314

Satellite: CAPE1
Catalog number: 31130
Epoch time:      12109.75632775
Element set:     447
Inclination:      097.8860 deg
RA of node:       120.7508 deg
Eccentricity:    0.0100747
Arg of perigee:   309.3681 deg
Mean anomaly:     049.8584 deg
Mean motion:   14.52866836 rev/day
Decay rate:       5.16e-06 rev/day^2
Epoch rev:           26514
Checksum:              315

Satellite: COMPASS
Catalog number: 32787
Epoch time:      12110.33628089
Element set:     280
Inclination:      097.8057 deg
RA of node:       172.9672 deg
Eccentricity:    0.0014293
Arg of perigee:   251.5833 deg
Mean anomaly:     108.3880 deg
Mean motion:   14.83755217 rev/day
Decay rate:      1.888e-05 rev/day^2
Epoch rev:           21508
Checksum:              317

Satellite: AAUSAT2
Catalog number: 32788
Epoch time:      12110.11605791
Element set:     270
Inclination:      097.8071 deg
RA of node:       173.1015 deg
Eccentricity:    0.0013713
Arg of perigee:   251.4872 deg
Mean anomaly:     108.4921 deg
Mean motion:   14.84053242 rev/day
Decay rate:      1.318e-05 rev/day^2
Epoch rev:           21507
Checksum:              262

Satellite: DO-64
Catalog number: 32789
Epoch time:      12109.88288917
Element set:    0289
Inclination:      097.8183 deg
RA of node:       174.6788 deg
Eccentricity:    0.0013632
Arg of perigee:   249.4050 deg
Mean anomaly:     110.5709 deg
Mean motion:   14.85370847 rev/day
Decay rate:      3.324e-05 rev/day^2
Epoch rev:           21507
Checksum:              344

Satellite: CO-66
Catalog number: 32791
Epoch time:      12109.22412501
Element set:     271
Inclination:      097.8063 deg
RA of node:       171.6673 deg
Eccentricity:    0.0014561
Arg of perigee:   255.6178 deg
Mean anomaly:     104.3377 deg
Mean motion:   14.83214479 rev/day
Decay rate:      1.512e-05 rev/day^2
Epoch rev:           21485
Checksum:              295

